RYR121 EIDW-EGLL

Flight info

Callsign RYR121
Flight time N/A
Altitude 35000
Route PESIT6A PESIT DCT BAKUR DCT ECCIT DCT GUBJE DCT GISOK DCT TACQI DCT FONZU DCT ELRIP DCT OTMET OTMET1H
Aircraft B738/M-SDFGIRWYZ/L

Departure

Time 2026-05-04 09:11
Airport Dublin Airport (EIDW)

Arrival

Time N/A
Airport London Heathrow Airport (EGLL)
Time Latitude Longitude Altitude Speed Heading
2026-05-04 08:28 53.42271 -6.24367 211 ft 0 kts 330°
2026-05-04 08:55 53.42265 -6.24361 211 ft 2 kts 327°
2026-05-04 08:55 53.42252 -6.24346 211 ft 2 kts 324°
2026-05-04 08:55 53.42239 -6.24329 212 ft 2 kts 316°
2026-05-04 08:57 53.42230 -6.24248 213 ft 0 kts 223°
2026-05-04 09:01 53.42181 -6.24339 211 ft 9 kts 237°
2026-05-04 09:01 53.42167 -6.24449 209 ft 10 kts 271°
2026-05-04 09:01 53.42174 -6.24590 211 ft 14 kts 275°
2026-05-04 09:01 53.42182 -6.24726 209 ft 2 kts 275°
2026-05-04 09:02 53.42184 -6.24753 210 ft 2 kts 275°
2026-05-04 09:02 53.42185 -6.24779 211 ft 2 kts 274°
2026-05-04 09:02 53.42187 -6.24825 212 ft 8 kts 274°
2026-05-04 09:02 53.42192 -6.24970 217 ft 17 kts 278°
2026-05-04 09:03 53.42181 -6.25155 212 ft 9 kts 245°
2026-05-04 09:03 53.42144 -6.25266 212 ft 2 kts 240°
2026-05-04 09:03 53.42140 -6.25277 219 ft 0 kts 239°
2026-05-04 09:05 53.42130 -6.25303 216 ft 8 kts 235°
2026-05-04 09:05 53.42080 -6.25456 219 ft 22 kts 244°
2026-05-04 09:05 53.42067 -6.25771 221 ft 33 kts 275°
2026-05-04 09:06 53.42089 -6.26166 221 ft 33 kts 274°
2026-05-04 09:07 53.42147 -6.27261 231 ft 12 kts 275°
2026-05-04 09:08 53.42157 -6.27438 233 ft 19 kts 276°
2026-05-04 09:08 53.42180 -6.27698 238 ft 26 kts 282°
2026-05-04 09:08 53.42241 -6.27962 241 ft 23 kts 299°
2026-05-04 09:08 53.42316 -6.28120 246 ft 11 kts 337°
2026-05-04 09:09 53.42371 -6.28232 247 ft 12 kts 283°
2026-05-04 09:09 53.42350 -6.28306 247 ft 9 kts 211°
2026-05-04 09:09 53.42313 -6.28317 247 ft 0 kts 173°
2026-05-04 09:10 53.42311 -6.28316 247 ft 2 kts 168°
2026-05-04 09:10 53.42266 -6.28276 247 ft 12 kts 136°
2026-05-04 09:10 53.42207 -6.28110 243 ft 22 kts 113°
2026-05-04 09:10 53.42180 -6.27790 238 ft 47 kts 95°
2026-05-04 09:11 53.42121 -6.26641 228 ft 146 kts 92°
2026-05-04 09:11 53.41947 -6.24598 678 ft 195 kts 97°
2026-05-04 09:11 53.41749 -6.22270 1749 ft 210 kts 94°
2026-05-04 09:11 53.41552 -6.19833 2693 ft 208 kts 95°
2026-05-04 09:12 53.41439 -6.17393 3503 ft 205 kts 89°
2026-05-04 09:12 53.41378 -6.14992 4108 ft 219 kts 90°
2026-05-04 09:14 53.36085 -5.99685 8794 ft 285 kts 185°
2026-05-04 09:14 53.34099 -6.00163 9043 ft 287 kts 190°
2026-05-04 09:14 53.32130 -6.00754 9066 ft 287 kts 189°
2026-05-04 09:14 53.30148 -6.01318 9094 ft 292 kts 189°
2026-05-04 09:15 53.28153 -6.01918 9109 ft 290 kts 194°
2026-05-04 09:15 53.26202 -6.02888 9435 ft 296 kts 198°
2026-05-04 09:15 53.24242 -6.03953 10452 ft 293 kts 198°
2026-05-04 09:15 53.22249 -6.05008 11090 ft 309 kts 197°
2026-05-04 09:17 53.01927 -6.03489 14837 ft 417 kts 163°
2026-05-04 09:18 52.99124 -6.02210 15539 ft 420 kts 163°
2026-05-04 09:18 52.96290 -6.00930 16139 ft 424 kts 163°
2026-05-04 09:18 52.93419 -5.99636 16768 ft 428 kts 163°
2026-05-04 09:18 52.90538 -5.98338 17401 ft 431 kts 163°
2026-05-04 09:19 52.87627 -5.97026 18032 ft 434 kts 162°
2026-05-04 09:19 52.84695 -5.95705 18593 ft 438 kts 162°
2026-05-04 09:19 52.81776 -5.94389 19086 ft 441 kts 162°
2026-05-04 09:19 52.78799 -5.93047 19589 ft 445 kts 162°
2026-05-04 09:20 52.75790 -5.91694 20089 ft 448 kts 162°
2026-05-04 09:20 52.72778 -5.90341 20590 ft 451 kts 162°
2026-05-04 09:20 52.69737 -5.88977 21067 ft 454 kts 162°
2026-05-04 09:20 52.66664 -5.87601 21534 ft 458 kts 162°
2026-05-04 09:21 52.63584 -5.86223 21979 ft 461 kts 162°
2026-05-04 09:21 52.60476 -5.84836 22414 ft 464 kts 162°
2026-05-04 09:21 52.57352 -5.83443 22827 ft 466 kts 162°
2026-05-04 09:21 52.54207 -5.82043 23070 ft 470 kts 161°
2026-05-04 09:22 52.51036 -5.80633 23063 ft 473 kts 161°
2026-05-04 09:22 52.47904 -5.79244 23066 ft 470 kts 162°
2026-05-04 09:22 52.44763 -5.77853 23055 ft 467 kts 161°
2026-05-04 09:22 52.41609 -5.76457 23067 ft 467 kts 162°
2026-05-04 09:23 52.38468 -5.75047 23081 ft 469 kts 161°
2026-05-04 09:23 52.35359 -5.73537 23383 ft 471 kts 160°
2026-05-04 09:23 52.32220 -5.71961 23805 ft 471 kts 159°
2026-05-04 09:23 52.29084 -5.70393 24137 ft 473 kts 160°
2026-05-04 09:25 52.06923 -5.58740 25618 ft 467 kts 136°
2026-05-04 09:25 52.04474 -5.55298 26099 ft 465 kts 137°
2026-05-04 09:26 52.01737 -5.52522 26249 ft 478 kts 152°
2026-05-04 09:26 51.98466 -5.50811 25869 ft 497 kts 163°
2026-05-04 09:26 51.95110 -5.49471 26007 ft 495 kts 162°
2026-05-04 09:26 51.91831 -5.48122 26299 ft 491 kts 162°
2026-05-04 09:27 51.88501 -5.46945 26646 ft 490 kts 168°
2026-05-04 09:27 51.85218 -5.45687 27080 ft 479 kts 153°
2026-05-04 09:27 51.82450 -5.42882 27629 ft 463 kts 134°
2026-05-04 09:27 51.80215 -5.39219 28278 ft 454 kts 130°
2026-05-04 09:28 51.77964 -5.35669 28837 ft 453 kts 135°
2026-05-04 09:28 51.75469 -5.32529 29253 ft 456 kts 142°
2026-05-04 09:28 51.73685 -5.30693 29513 ft 459 kts 146°
2026-05-04 09:28 51.70875 -5.28227 29888 ft 461 kts 149°
2026-05-04 09:29 51.67988 -5.25972 30302 ft 460 kts 151°
2026-05-04 09:29 51.65087 -5.23802 30674 ft 459 kts 151°
2026-05-04 09:29 51.62196 -5.21632 31025 ft 458 kts 151°
2026-05-04 09:29 51.59307 -5.19436 31352 ft 458 kts 151°
2026-05-04 09:30 51.56459 -5.17243 31702 ft 457 kts 151°
2026-05-04 09:30 51.53596 -5.15029 32063 ft 456 kts 152°
2026-05-04 09:30 51.50782 -5.12706 32397 ft 454 kts 146°
2026-05-04 09:30 51.48194 -5.09800 32707 ft 451 kts 137°
2026-05-04 09:31 51.45849 -5.06487 33060 ft 450 kts 136°
2026-05-04 09:31 51.43522 -5.03125 33375 ft 449 kts 136°
2026-05-04 09:31 51.41201 -4.99771 33683 ft 449 kts 136°
2026-05-04 09:31 51.38872 -4.96430 34015 ft 449 kts 136°
2026-05-04 09:32 51.36534 -4.93104 34275 ft 449 kts 137°
2026-05-04 09:32 51.34182 -4.89782 34517 ft 450 kts 137°
2026-05-04 09:34 51.17665 -4.66678 35014 ft 449 kts 138°
2026-05-04 09:34 51.15316 -4.63410 35011 ft 449 kts 138°
2026-05-04 09:34 51.10608 -4.56869 35014 ft 448 kts 138°
2026-05-04 09:35 51.05913 -4.50343 35009 ft 448 kts 136°
2026-05-04 09:35 51.02067 -4.42683 35010 ft 447 kts 121°
2026-05-04 09:37 50.89351 -4.08542 35007 ft 451 kts 121°
2026-05-04 09:38 50.86130 -4.00055 35006 ft 453 kts 121°
2026-05-04 09:38 50.82894 -3.91507 35007 ft 453 kts 119°
2026-05-04 09:39 50.80548 -3.82261 35019 ft 454 kts 108°
2026-05-04 09:39 50.78618 -3.72718 35014 ft 455 kts 108°
2026-05-04 09:40 50.76664 -3.63199 35018 ft 456 kts 109°
2026-05-04 09:40 50.74663 -3.53692 35024 ft 456 kts 109°
2026-05-04 09:42 50.66527 -3.15718 35016 ft 458 kts 109°
2026-05-04 09:43 50.64470 -3.06208 35014 ft 458 kts 109°
2026-05-04 09:43 50.63443 -2.96326 35016 ft 459 kts 91°
2026-05-04 09:44 50.64292 -2.86431 34940 ft 462 kts 78°
2026-05-04 09:44 50.65054 -2.81469 34387 ft 468 kts 77°
2026-05-04 09:46 50.69657 -2.46899 29140 ft 474 kts 65°
2026-05-04 09:46 50.71265 -2.42352 28182 ft 474 kts 63°
2026-05-04 09:46 50.72888 -2.37813 27237 ft 477 kts 63°
2026-05-04 09:47 50.74524 -2.33213 26329 ft 481 kts 63°
2026-05-04 09:47 50.76157 -2.28578 25444 ft 483 kts 63°
2026-05-04 09:49 50.86830 -1.97650 19206 ft 437 kts 63°
2026-05-04 09:49 50.88273 -1.93427 18364 ft 432 kts 63°
2026-05-04 09:49 50.89688 -1.89281 17431 ft 426 kts 63°
2026-05-04 09:51 50.97798 -1.65389 12079 ft 396 kts 63°
2026-05-04 09:51 50.99091 -1.61558 11197 ft 391 kts 63°
2026-05-04 09:51 51.00367 -1.57772 10491 ft 387 kts 63°
2026-05-04 09:51 51.01635 -1.54005 10304 ft 386 kts 63°
2026-05-04 09:52 51.02897 -1.50249 10184 ft 385 kts 63°
2026-05-04 09:52 51.04153 -1.46506 10066 ft 384 kts 63°
2026-05-04 09:52 51.05412 -1.42749 10020 ft 388 kts 63°
2026-05-04 09:52 51.06667 -1.38997 10007 ft 373 kts 63°
2026-05-04 09:53 51.07836 -1.35503 10009 ft 343 kts 63°
2026-05-04 09:53 51.08910 -1.32291 10005 ft 316 kts 63°
2026-05-04 09:53 51.09919 -1.29263 9398 ft 312 kts 63°
2026-05-04 09:53 51.10926 -1.26236 8879 ft 306 kts 63°
2026-05-04 09:54 51.11911 -1.23273 8350 ft 300 kts 63°